[[{"header":{"parameterUnit":"m.s-1","parameterCategory":1,"la1":30.2991,"la2":30.254,"lo1":-89.0895,"lo2":-89.0444,"dy":0.0017,"dx":0.0017,"nx":28,"ny":28,"refTime":"2025-09-11T21:00:00:Z","depth":0,"parameterNumber":2,"parameterNumberName":"U-component_of_WINDS"},"data":[0,0,0,0,0,0,0,0,0,0,0,0,0,0,0,0,0,0,0,0,0,0,0,0,0,0,0,0,0,0,0,0,0,0,0,0,0,0,0,0,0,0,0,0,0,0,0,0,0,0,0,0,0,0,0,0,0,0,0.7602,0.7604,0,0.7734,0.7736,0.7737,0.7763,0.7762,0.7761,0.776,0.7892,0.7897,0.7901,0,0,0,0,0,0,0,0,0,0,0,0,0,0.737,0.7374,0.7602,0.7604,0.7605,0.7734,0.7736,0.7738,0.7763,0.7762,0.7761,0.776,0.7891,0.7896,0.7902,0,0,0,0,0,0,0,0,0,0,0,0,0,0.7483,0.7375,0.7602,0.7634,0.7638,0.7734,0.7736,0.7738,0.7764,0.7762,0.7761,0.7759,0.7889,0.7896,0.7902,0.7974,0,0,0.7923,0.7926,0,0,0,0,0,0,0,0,0.7476,0.7491,0.7628,0.7632,0.7637,0.7731,0.7702,0.7817,0.7764,0.7716,0.776,0.7759,0.784,0.785,0.7878,0.798,0.7986,0.7923,0.7927,0.793,0.7932,0,0,0,0,0,0,0,0.7469,0.7486,0.7654,0.7629,0.7635,0.7641,0.7655,0.7724,0.7785,0.772,0.7722,0.7738,0.7842,0.7872,0.7882,0.7988,0.7923,0.7929,0.7933,0.7936,0.8157,0.8158,0,0,0,0,0,0,0.7455,0.7479,0.765,0.7658,0.7551,0.7646,0.7662,0.7702,0.7784,0.7795,0.7739,0.7738,0.7861,0.7874,0.7886,0.7977,0.793,0.7937,0.794,0.8155,0.8157,0.8159,0,0,0,0,0,0,0.745,0.747,0.7645,0.7569,0.7592,0.7652,0.7696,0.7705,0.7736,0.7798,0.7809,0.7759,0.786,0.7877,0.7953,0.7982,0.794,0.7946,0.8153,0.8156,0.8158,0.8158,0,0,0,0,0,0,0.7444,0.7468,0.7497,0.757,0.7596,0.7709,0.7698,0.7709,0.7747,0.7748,0.782,0.783,0.7861,0.7943,0.7959,0.799,0.7951,0.815,0.8154,0.8157,0.8155,0.816,0.8164,0,0,0,0,0,0.7435,0.749,0.7498,0.7519,0.7633,0.7711,0.7726,0.7761,0.775,0.7778,0.7819,0.7828,0.7976,0.795,0.7969,0.8003,0.8149,0.8153,0.8157,0.8153,0.8159,0.8164,0,0,0,0,0,0,0.7417,0.75,0.751,0.7591,0.7644,0.7715,0.7752,0.7766,0.7822,0.782,0.786,0.7876,0.795,0.7984,0.7953,0.8077,0.8062,0.807,0.8052,0.8058,0.8062,0.8053,0.7956,0,0,0,0,0,0.7423,0.7481,0.755,0.7614,0.7641,0.7692,0.7727,0.775,0.7806,0.7828,0.7874,0.7927,0.7986,0.8024,0.8081,0.816,0.8177,0.8193,0.8197,0.82,0.8207,0.8252,0.8261,0.8173,0.8173,0.8173,0,0,0.7434,0.7487,0.7521,0.7612,0.7656,0.7714,0.7711,0.7772,0.7815,0.7837,0.7912,0.7948,0.801,0.8088,0.8124,0.8118,0.8235,0.8206,0.8208,0.8213,0.8257,0.8266,0.8273,0.8176,0.8175,0.8175,0,0,0.7486,0.7531,0.7591,0.7636,0.7703,0.7737,0.7751,0.7822,0.7847,0.7923,0.7941,0.7992,0.8092,0.8137,0.8172,0.8242,0.8252,0.8259,0.8282,0.8326,0.8333,0.8339,0.8365,0.8374,0.8266,0.8266,0.8266,0,0.7491,0.7581,0.7619,0.7681,0.7721,0.7745,0.7805,0.7846,0.7928,0.7954,0.7947,0.8074,0.8117,0.8206,0.8224,0.8251,0.8269,0.8251,0.8329,0.8336,0.8342,0.8367,0.8377,0.8266,0.8266,0.8266,0.8266,0,0.7585,0.7647,0.7687,0.7768,0.7812,0.7872,0.7919,0.7959,0.7978,0.8013,0.809,0.8143,0.8213,0.8235,0.8254,0.8328,0.8322,0.8321,0.8307,0.8351,0.8375,0.8385,0.8267,0.8267,0.8266,0.8266,0,0,0.7628,0.7731,0.7745,0.7783,0.7859,0.7908,0.7969,0.8038,0.8072,0.8128,0.818,0.8265,0.8266,0.8306,0.833,0.8368,0.8421,0.8363,0.8365,0.8372,0.8507,0.8508,0.8518,0.8429,0.843,0.8432,0.8502,0,0.7689,0.7802,0.7839,0.7932,0.799,0.8015,0.8069,0.8121,0.8156,0.8209,0.8246,0.8307,0.8302,0.8327,0.8365,0.8406,0.8449,0.8402,0.8478,0.848,0.8462,0.8531,0.8531,0.8595,0.8512,0.8513,0.8514,0,0.7775,0.7835,0.7935,0.8006,0.8032,0.808,0.8147,0.8198,0.8258,0.8281,0.8327,0.8348,0.8413,0.8394,0.8484,0.8452,0.8485,0.851,0.8513,0.8522,0.85,0.8542,0.8616,0.8626,0.853,0.8528,0.8527,0,0.7797,0.7902,0.7977,0.8008,0.8093,0.8126,0.8162,0.8221,0.8261,0.8319,0.8346,0.841,0.8445,0.8495,0.8533,0.8515,0.862,0.8604,0.864,0.8639,0.8661,0.866,0.8742,0.8682,0.8681,0.8681,0.8681,0,0.7862,0.7922,0.7988,0.8033,0.8102,0.8143,0.821,0.8247,0.83,0.8352,0.8377,0.8425,0.8472,0.8527,0.8557,0.8628,0.8643,0.8663,0.867,0.8661,0.8659,0.8684,0.8681,0.8684,0.8683,0.8683,0.8682,0,0.7898,0.7945,0.8027,0.8102,0.8122,0.8169,0.8232,0.8277,0.8313,0.8379,0.8397,0.8453,0.8519,0.8562,0.8645,0.8666,0.8743,0.8749,0.8724,0.8727,0.8761,0.8758,0.8864,0.888,0.8807,0.8808,0.8808,0,0.7936,0.7984,0.8065,0.8103,0.8141,0.8201,0.8243,0.8286,0.8328,0.8401,0.8437,0.8505,0.8562,0.8666,0.8713,0.8777,0.8785,0.8818,0.8795,0.8785,0.8787,0.8784,0.879,0.8822,0.8822,0.8823,0.8823,0,0.8,0.8022,0.8082,0.8151,0.82,0.8256,0.8311,0.834,0.8393,0.8439,0.8508,0.8552,0.8638,0.8705,0.8774,0.8811,0.8826,0.883,0.8842,0.8834,0.8818,0.8828,0.8735,0.8827,0.8827,0.8827,0.8826,0.8826,0.8039,0.8083,0.8148,0.8215,0.8262,0.8313,0.836,0.8403,0.8462,0.8537,0.8558,0.863,0.869,0.8784,0.8822,0.8879,0.8875,0.8892,0.8896,0.89,0.8901,0.8808,0.8891,0.8891,0.8891,0.8891,0.8891,0,0.8105,0.8148,0.8209,0.8288,0.834,0.8352,0.8414,0.8457,0.8521,0.8576,0.8632,0.8712,0.8778,0.8831,0.8899,0.8934,0.8943,0.895,0.8949,0.8957,0.89,0.8884,0.8942,0.8942,0.8942,0.8942,0.8942,0.8942,0.8145,0.8221,0.8251,0.835,0.8393,0.8465,0.85,0.8548,0.8593,0.8682,0.8737,0.8772,0.8827,0.89,0.896,0.8974,0.8999,0.9005,0.9021,0.8966,0.8961,0.8955,0.894,0.901,0.901,0.9073,0.9074,0.9074]},{"header":{"parameterUnit":"m.s-1","parameterCategory":1,"la1":30.2991,"la2":30.254,"lo1":-89.0895,"lo2":-89.0444,"dy":0.0017,"dx":0.0017,"nx":28,"ny":28,"refTime":"2025-09-11T21:00:00:Z","depth":0,"parameterNumber":3,"parameterNumberName":"V-component_of_WINDS"},"data":[0,0,0,0,0,0,0,0,0,0,0,0,0,0,0,0,0,0,0,0,0,0,0,0,0,0,0,0,0,0,0,0,0,0,0,0,0,0,0,0,0,0,0,0,0,0,0,0,0,0,0,0,0,0,0,0,0,0,0.3166,0.3162,0,0.2748,0.2743,0.2739,0.2532,0.2532,0.2532,0.2532,0.2098,0.2087,0.2075,0,0,0,0,0,0,0,0,0,0,0,0,0,0.378,0.377,0.3167,0.3162,0.3156,0.2749,0.2743,0.2737,0.2532,0.2532,0.2532,0.2532,0.2102,0.2088,0.2074,0,0,0,0,0,0,0,0,0,0,0,0,0,0.3453,0.3767,0.3168,0.3005,0.2986,0.275,0.2743,0.2736,0.2532,0.2532,0.2532,0.2532,0.2106,0.2089,0.2072,0.1965,0,0,0.2019,0.2012,0,0,0,0,0,0,0,0,0.3472,0.3431,0.3034,0.3016,0.2994,0.2692,0.28,0.2477,0.2532,0.2704,0.2532,0.2532,0.2295,0.2262,0.2184,0.1945,0.1926,0.2018,0.2007,0.2,0.1995,0,0,0,0,0,0,0,0.3495,0.3448,0.3001,0.3028,0.3004,0.295,0.2904,0.2738,0.2505,0.2689,0.2673,0.2627,0.2284,0.2201,0.2172,0.192,0.2018,0.2003,0.1992,0.1985,0.1567,0.1566,0,0,0,0,0,0,0.3545,0.3468,0.3014,0.2988,0.3238,0.2939,0.2887,0.2789,0.2506,0.2463,0.2627,0.2619,0.2231,0.2192,0.2156,0.2008,0.2,0.1984,0.1974,0.1568,0.1567,0.1566,0,0,0,0,0,0,0.3559,0.3506,0.3031,0.3223,0.3159,0.2929,0.282,0.2781,0.2697,0.2459,0.2416,0.2585,0.2229,0.218,0.2013,0.1991,0.1976,0.196,0.1568,0.1567,0.1566,0.1716,0,0,0,0,0,0,0.3577,0.3513,0.3472,0.3224,0.315,0.2898,0.2819,0.2773,0.2668,0.2653,0.2408,0.2368,0.2225,0.204,0.1996,0.1966,0.1946,0.1569,0.1568,0.1567,0.1712,0.172,0.1727,0,0,0,0,0,0.36,0.353,0.3471,0.3417,0.3094,0.2898,0.2854,0.2694,0.2668,0.2623,0.2469,0.2375,0.2001,0.2025,0.1973,0.1938,0.157,0.1568,0.1567,0.1708,0.1718,0.1727,0,0,0,0,0,0,0.3779,0.3495,0.3426,0.3274,0.3112,0.2863,0.2802,0.271,0.255,0.2543,0.2348,0.2294,0.2145,0.2024,0.2057,0.1817,0.1776,0.1764,0.1901,0.1909,0.1916,0.1947,0.1932,0,0,0,0,0,0.3802,0.3668,0.3426,0.3315,0.3237,0.3035,0.2943,0.2833,0.2656,0.2586,0.242,0.2251,0.2094,0.1995,0.1838,0.1694,0.1635,0.1644,0.1652,0.1659,0.165,0.1561,0.1561,0.1561,0.1561,0.1561,0,0,0.3845,0.3673,0.3601,0.3347,0.3208,0.3071,0.2978,0.2838,0.2734,0.2564,0.2396,0.2269,0.2066,0.191,0.1832,0.1805,0.1638,0.1657,0.1665,0.1651,0.156,0.156,0.156,0.156,0.156,0.156,0,0,0.3855,0.3713,0.3603,0.3466,0.3258,0.3123,0.3097,0.2861,0.277,0.2599,0.2468,0.234,0.2076,0.1936,0.183,0.1785,0.1691,0.1739,0.1778,0.1694,0.1694,0.1693,0.1673,0.1669,0.1732,0.1732,0.1732,0,0.3935,0.3726,0.3559,0.3425,0.3316,0.3157,0.3043,0.2918,0.2668,0.2595,0.2569,0.2232,0.2084,0.1891,0.188,0.1801,0.1762,0.1766,0.1708,0.1705,0.1701,0.1681,0.1674,0.1739,0.1738,0.1738,0.1737,0,0.3833,0.369,0.3627,0.3391,0.3274,0.3152,0.2963,0.2864,0.2765,0.2632,0.2457,0.2275,0.2077,0.2023,0.1924,0.1814,0.1804,0.1746,0.1699,0.1711,0.1688,0.1679,0.1749,0.1747,0.1745,0.1743,0,0,0.3943,0.3616,0.3595,0.3485,0.3242,0.3127,0.2996,0.2803,0.2721,0.2555,0.2437,0.2216,0.216,0.204,0.1924,0.185,0.1822,0.1799,0.1791,0.1807,0.1685,0.173,0.1723,0.1759,0.1757,0.1755,0.1701,0,0.3917,0.3676,0.352,0.334,0.3204,0.3051,0.2935,0.2773,0.2645,0.2509,0.2366,0.2212,0.2151,0.2077,0.1997,0.1843,0.1794,0.1844,0.1645,0.164,0.1698,0.1712,0.1757,0.1716,0.1692,0.169,0.1689,0,0.3854,0.3692,0.3499,0.3269,0.3205,0.3105,0.2914,0.2788,0.2599,0.251,0.2377,0.2258,0.211,0.2078,0.1869,0.1907,0.1816,0.1727,0.1721,0.1694,0.1664,0.1682,0.1699,0.1692,0.1674,0.1675,0.1676,0,0.395,0.3683,0.3532,0.3443,0.3172,0.3104,0.2988,0.2799,0.2693,0.2525,0.2453,0.2272,0.2171,0.2032,0.1866,0.1859,0.1672,0.1628,0.1592,0.1596,0.1558,0.1562,0.1557,0.1505,0.1505,0.1505,0.1505,0,0.3935,0.3822,0.3571,0.3479,0.3346,0.3167,0.3041,0.2911,0.2744,0.2621,0.2477,0.2364,0.2154,0.2014,0.1883,0.1728,0.1684,0.1606,0.1573,0.1618,0.1627,0.1553,0.1551,0.1503,0.1503,0.1504,0.1504,0,0.402,0.3848,0.3672,0.343,0.3366,0.3279,0.307,0.2972,0.2837,0.2682,0.2636,0.2422,0.2249,0.2071,0.1838,0.1749,0.1598,0.1553,0.1662,0.1643,0.1616,0.162,0.1561,0.1543,0.1507,0.1508,0.1508,0,0.402,0.393,0.3678,0.3585,0.3473,0.3327,0.3217,0.3036,0.2928,0.2705,0.2633,0.2451,0.2294,0.2026,0.1848,0.1668,0.1615,0.1607,0.1587,0.1634,0.1611,0.1617,0.1606,0.1614,0.1615,0.1616,0.1617,0,0.4039,0.3958,0.3806,0.3624,0.3498,0.3346,0.3188,0.312,0.2908,0.2793,0.2615,0.2495,0.2256,0.2075,0.1874,0.175,0.1647,0.1625,0.1606,0.165,0.1716,0.1677,0.1679,0.1627,0.1626,0.1625,0.1625,0.1624,0.4078,0.3989,0.3798,0.3633,0.3495,0.3351,0.3246,0.3097,0.2947,0.274,0.2642,0.2464,0.2273,0.1992,0.1871,0.1727,0.1697,0.1672,0.1664,0.166,0.167,0.1742,0.169,0.1689,0.1689,0.1688,0.1688,0,0.4086,0.3955,0.3806,0.3589,0.3459,0.3376,0.3196,0.3092,0.2937,0.277,0.2619,0.2414,0.2237,0.2046,0.1857,0.1778,0.1726,0.1734,0.1737,0.1709,0.1708,0.1742,0.178,0.178,0.178,0.178,0.178,0.178,0.4075,0.3919,0.3816,0.3589,0.3457,0.3283,0.3187,0.3051,0.2916,0.2694,0.2547,0.2424,0.2245,0.2042,0.1875,0.1823,0.1758,0.178,0.1714,0.1717,0.171,0.1703,0.1733,0.1769,0.1769,0.1726,0.1726,0.1726]}]]